Hourly Weather Pervomajskij

Today, 7 August, Friday

Time Temperature Precipitation Wind Pressure Humidity
00:00 +21°C° 0 mm 3 mps 748 mmHg 74%
01:00 +21°C° 0 mm 3 mps 749 mmHg 74%
02:00 +20°C° 0 mm 3 mps 749 mmHg 72%
03:00 +20°C° 0 mm 3 mps 749 mmHg 72%
04:00 +20°C° 0 mm 3 mps 749 mmHg 73%
05:00 +20°C° 0 mm 3 mps 749 mmHg 73%
06:00 +22°C° 0 mm 3 mps 749 mmHg 67%
07:00 +25°C° 0 mm 4 mps 749 mmHg 61%
08:00 +27°C° 0 mm 4 mps 749 mmHg 54%
09:00 +28°C° 0 mm 5 mps 749 mmHg 50%
10:00 +30°C° 0 mm 5 mps 749 mmHg 45%
11:00 +32°C° 0 mm 5 mps 749 mmHg 41%
12:00 +32°C° 0 mm 5 mps 749 mmHg 39%
13:00 +33°C° 0 mm 5 mps 748 mmHg 38%
14:00 +33°C° 0 mm 5 mps 748 mmHg 37%
15:00 +32°C° 0 mm 5 mps 748 mmHg 40%
16:00 +32°C° 0 mm 5 mps 748 mmHg 42%
17:00 +30°C° 0 mm 5 mps 748 mmHg 45%
18:00 +28°C° 0 mm 4 mps 748 mmHg 52%
19:00 +27°C° 0 mm 4 mps 748 mmHg 58%
20:00 +25°C° 0 mm 3 mps 748 mmHg 64%
21:00 +24°C° 0 mm 3 mps 748 mmHg 69%
22:00 +22°C° 0 mm 3 mps 748 mmHg 74%
23:00 +21°C° 0 mm 3 mps 748 mmHg 79%

Tomorrow, 8 August, Saturday

Time Temperature Precipitation Wind Pressure Humidity
00:00 +21°C° 0 mm 3 mps 748 mmHg 81%
01:00 +20°C° 0 mm 4 mps 748 mmHg 84%
02:00 +20°C° 0 mm 4 mps 748 mmHg 86%
03:00 +19°C° 0 mm 4 mps 748 mmHg 86%
04:00 +19°C° 0 mm 4 mps 747 mmHg 85%
05:00 +18°C° 0 mm 4 mps 747 mmHg 85%
06:00 +20°C° 0 mm 4 mps 747 mmHg 77%
07:00 +22°C° 0 mm 5 mps 747 mmHg 68%
08:00 +23°C° 0 mm 5 mps 748 mmHg 60%
09:00 +26°C° 0 mm 5 mps 747 mmHg 56%
10:00 +27°C° 0 mm 5 mps 747 mmHg 52%
11:00 +28°C° 0 mm 5 mps 747 mmHg 47%
12:00 +28°C° 0 mm 5 mps 747 mmHg 46%
13:00 +28°C° 0 mm 5 mps 746 mmHg 44%
14:00 +29°C° 0 mm 5 mps 746 mmHg 43%
15:00 +28°C° 0 mm 5 mps 746 mmHg 44%
16:00 +28°C° 0 mm 5 mps 746 mmHg 45%
17:00 +27°C° 0 mm 5 mps 745 mmHg 47%
18:00 +25°C° 0 mm 5 mps 746 mmHg 52%
19:00 +23°C° 0 mm 4 mps 746 mmHg 57%
20:00 +21°C° 0 mm 3 mps 746 mmHg 63%
21:00 +20°C° 0 mm 3 mps 746 mmHg 65%
22:00 +20°C° 0 mm 3 mps 746 mmHg 67%
23:00 +19°C° 0 mm 3 mps 746 mmHg 69%

Day after tomorrow, 9 August, Sunday

Time Temperature Precipitation Wind Pressure Humidity
00:00 +18°C° 0 mm 3 mps 745 mmHg 71%
01:00 +17°C° 0 mm 3 mps 745 mmHg 74%
02:00 +17°C° 0 mm 3 mps 745 mmHg 76%
03:00 +17°C° 0 mm 3 mps 745 mmHg 77%
04:00 +17°C° 0 mm 3 mps 745 mmHg 79%
05:00 +16°C° 0 mm 3 mps 745 mmHg 80%
06:00 +19°C° 0 mm 3 mps 745 mmHg 72%
07:00 +21°C° 0 mm 3 mps 745 mmHg 64%
08:00 +24°C° 0 mm 3 mps 745 mmHg 56%
09:00 +25°C° 0 mm 4 mps 745 mmHg 51%
10:00 +27°C° 0 mm 4 mps 745 mmHg 46%
11:00 +28°C° 0 mm 4 mps 745 mmHg 41%
12:00 +28°C° 0 mm 4 mps 745 mmHg 41%
13:00 +28°C° 0 mm 4 mps 744 mmHg 42%
14:00 +28°C° 0 mm 4 mps 744 mmHg 43%
15:00 +28°C° 0 mm 4 mps 744 mmHg 45%
16:00 +27°C° 0 mm 4 mps 744 mmHg 48%
17:00 +27°C° 0 mm 3 mps 744 mmHg 51%
18:00 +25°C° 0 mm 3 mps 744 mmHg 56%
19:00 +24°C° 0 mm 2 mps 744 mmHg 61%
20:00 +21°C° 0 mm 2 mps 744 mmHg 66%
21:00 +21°C° 0 mm 2 mps 744 mmHg 68%
22:00 +20°C° 0 mm 2 mps 744 mmHg 71%
23:00 +19°C° 0 mm 2 mps 744 mmHg 74%

10 August, Monday

Time Temperature Precipitation Wind Pressure Humidity
00:00 +19°C° 0 mm 2 mps 744 mmHg 75%
01:00 +18°C° 0 mm 2 mps 744 mmHg 77%
02:00 +18°C° 0 mm 2 mps 744 mmHg 78%
03:00 +17°C° 0 mm 2 mps 744 mmHg 78%
04:00 +17°C° 0 mm 2 mps 744 mmHg 79%
05:00 +17°C° 0 mm 2 mps 744 mmHg 79%
06:00 +19°C° 0 mm 2 mps 744 mmHg 71%
07:00 +21°C° 0 mm 2 mps 744 mmHg 63%
08:00 +24°C° 0 mm 2 mps 744 mmHg 55%
09:00 +25°C° 0 mm 2 mps 744 mmHg 51%
10:00 +27°C° 0 mm 2 mps 744 mmHg 46%
11:00 +28°C° 0 mm 3 mps 744 mmHg 41%
12:00 +28°C° 0 mm 2 mps 744 mmHg 40%
13:00 +28°C° 0 mm 2 mps 744 mmHg 40%
14:00 +28°C° 0 mm 2 mps 743 mmHg 40%
15:00 +28°C° 0 mm 2 mps 743 mmHg 41%
16:00 +28°C° 0 mm 2 mps 743 mmHg 42%
17:00 +28°C° 0 mm 2 mps 743 mmHg 44%
18:00 +26°C° 0.2 mm 2 mps 743 mmHg 51%
19:00 +24°C° 0.2 mm 2 mps 743 mmHg 58%
20:00 +21°C° 0.2 mm 2 mps 743 mmHg 65%
21:00 +21°C° 0.3 mm 2 mps 743 mmHg 69%
22:00 +21°C° 0.3 mm 1 mps 744 mmHg 74%
23:00 +20°C° 0.3 mm 1 mps 744 mmHg 78%

11 August, Tuesday

Time Temperature Precipitation Wind Pressure Humidity
00:00 +20°C° 0 mm 1 mps 744 mmHg 80%
01:00 +19°C° 0 mm 1 mps 744 mmHg 82%
02:00 +19°C° 0 mm 1 mps 744 mmHg 84%
03:00 +19°C° 0 mm 1 mps 744 mmHg 84%
04:00 +19°C° 0 mm 1 mps 744 mmHg 85%
05:00 +18°C° 0 mm 1 mps 744 mmHg 86%
06:00 +20°C° 0 mm 1 mps 744 mmHg 77%
07:00 +22°C° 0 mm 1 mps 744 mmHg 68%
08:00 +24°C° 0 mm 2 mps 744 mmHg 59%
09:00 +25°C° 0 mm 2 mps 744 mmHg 53%
10:00 +27°C° 0 mm 2 mps 744 mmHg 47%
11:00 +28°C° 0 mm 3 mps 744 mmHg 42%
12:00 +29°C° 0 mm 3 mps 744 mmHg 39%
13:00 +29°C° 0 mm 3 mps 743 mmHg 36%
14:00 +30°C° 0 mm 3 mps 743 mmHg 33%
15:00 +29°C° 0 mm 3 mps 743 mmHg 34%
16:00 +29°C° 0 mm 3 mps 743 mmHg 35%
17:00 +29°C° 0 mm 3 mps 743 mmHg 36%
18:00 +27°C° 0 mm 2 mps 743 mmHg 41%
19:00 +25°C° 0 mm 2 mps 743 mmHg 47%
20:00 +23°C° 0 mm 2 mps 743 mmHg 53%
21:00 +22°C° 0 mm 1 mps 743 mmHg 54%
22:00 +21°C° 0 mm 1 mps 743 mmHg 55%
23:00 +21°C° 0 mm 1 mps 743 mmHg 56%

12 August, Wednesday

Time Temperature Precipitation Wind Pressure Humidity
00:00 +20°C° 0 mm 1 mps 743 mmHg 57%
01:00 +20°C° 0 mm 1 mps 743 mmHg 58%
02:00 +20°C° 0 mm 1 mps 743 mmHg 58%
03:00 +20°C° 0 mm 1 mps 742 mmHg 60%
04:00 +19°C° 0 mm 1 mps 742 mmHg 61%
05:00 +19°C° 0 mm 1 mps 742 mmHg 62%
06:00 +21°C° 0 mm 1 mps 742 mmHg 57%
07:00 +23°C° 0 mm 2 mps 742 mmHg 53%
08:00 +26°C° 0 mm 2 mps 742 mmHg 48%
09:00 +27°C° 0.1 mm 2 mps 742 mmHg 46%
10:00 +28°C° 0.1 mm 2 mps 742 mmHg 44%
11:00 +29°C° 0.1 mm 2 mps 742 mmHg 42%
12:00 +28°C° 0.1 mm 3 mps 742 mmHg 44%
13:00 +28°C° 0.1 mm 3 mps 741 mmHg 47%
14:00 +27°C° 0.1 mm 3 mps 741 mmHg 49%
15:00 +26°C° 1.9 mm 3 mps 741 mmHg 56%
16:00 +24°C° 1.9 mm 3 mps 741 mmHg 62%
17:00 +22°C° 1.9 mm 3 mps 741 mmHg 69%
18:00 +21°C° 0.2 mm 3 mps 741 mmHg 73%
19:00 +20°C° 0.2 mm 2 mps 742 mmHg 77%
20:00 +19°C° 0.2 mm 2 mps 742 mmHg 82%
21:00 +18°C° 0.1 mm 3 mps 742 mmHg 81%
22:00 +18°C° 0.1 mm 3 mps 742 mmHg 81%
23:00 +17°C° 0.1 mm 4 mps 742 mmHg 81%
Show more